Overview Statistics Trail Chart Weather Telemetry Raw packets
 

This is the latest recevied weather packets stored in our database for station/object DG4CB-13. If no packets are shown the sender has not sent any weather packets the latest 10 day(s).

<< 1 2 3 4 5 >>
Time Temp. Humidity Pressure Rain* Wind** Luminosity Snow
1788676200 9.44° C 87% 1026.3 hPa - - - -
1788675600 9.44° C 87% 1026.3 hPa - - - -
1788675000 8.89° C 87% 1026.4 hPa - - - -
1788674400 8.89° C 86% 1026.3 hPa - - - -
1788673800 8.89° C 86% 1026.2 hPa - - - -
1788650401 12.78° C 74% 1025 hPa - - - -
1788633000 18.89° C 52% 1022.9 hPa - - - -
1788632400 18.89° C 52% 1022.9 hPa - - - -
1788631800 18.89° C 52% 1022.7 hPa - - - -
1788631200 19.44° C 51% 1022.5 hPa - - - -
1788630600 19.44° C 50% 1022.3 hPa - - - -
1788630000 20° C 49% 1022.3 hPa - - - -
1788629400 20° C 48% 1022.1 hPa - - - -
1788628800 20.56° C 47% 1022.1 hPa - - - -
1788623400 21.67° C 45% 1021.4 hPa - - - -
1788622800 21.67° C 45% 1021.2 hPa - - - -
1788622200 21.67° C 45% 1021.1 hPa - - - -
1788621600 21.67° C 45% 1021.1 hPa - - - -
1788621000 21.67° C 45% 1020.9 hPa - - - -
1788620400 21.67° C 45% 1021 hPa - - - -
1788619800 21.67° C 46% 1020.9 hPa - - - -
1788619201 21.67° C 46% 1021 hPa - - - -
1788618600 21.11° C 45% 1020.9 hPa - - - -
1788618000 21.67° C 45% 1021 hPa - - - -
1788617400 21.67° C 45% 1020.9 hPa - - - -

* Rain since midnight (hover to see other rain measurements)
** Current wind speed in m/s (hover to see current wind gust speed)